Starlink 32849

operational
NORAD ID: 62872 Int'l Des: 2025-022 Owner: SPXS Country: US Constellation: starlink
LEOCIRCULAR

Starlink 32849について

説明を読み込み中...

リアルタイム位置

3D地球を読み込み中...

次回通過

高度履歴

Altitude vs Time

uPlot chart will show altitude changes over time

軌道要素

1 62872U 25022U 25353.79574072 .00018919 00000-0 64929-3 0 9996
2 62872 53.1577 141.0275 0001143 87.2298 272.8834 15.30198210 49669
Epoch: Dec 19, 2025 • Age: 13 hours

現在のステータス

高度 476.4 km
速度 7.63 km/s
衛星直下点 30.00°N, 42.19°W
打ち上げ日 Feb 2, 2025
運用期間 0.8 years
タイプ internet

技術仕様

分類 Payload
質量 730.00 kg
乾燥質量 700.00 kg
総質量 730.00 kg
長さ 0.30 m
直径 4.10 m
スパン 29.00 m
形状 Box + pan
製造者 SPXS
バスタイプ Starlink V2M
フェーズステータス In Orbit
所有者/国 SPXS/US

大規模コンステレーション

Loading constellations...